Regional Weather Roundup
Issued by NWS Charleston, SC

Current Version | Previous Version | Graphics & Text | Print | Product List | Glossary On
Versions: 1 2 3 4 5 6 7 8 9 10 11 12 13 14 15 16 17 18 19 20 21 22 23 24 25 26 27 28 29 30 31 32 33 34 35 36 37 38 39 40 41 42 43 44 45 46 47 48 49 50
000 ASUS42 KCHS 301810 RWRCHS REGIONAL WEATHER ROUNDUP NATIONAL WEATHER SERVICE CHARLESTON SC 200 PM EDT WED JUL 30 2014 NOTE: "FAIR" INDICATES FEW OR NO CLOUDS BELOW 12,000 FEET WITH NO SIGNIFICANT WEATHER AND/OR OBSTRUCTIONS TO VISIBILITY. NOT ALL STATIONS ARE QUALITY CONTROLLED BY THE NATIONAL WEATHER SERVICE. USE DATA WITH CAUTION...ESPECIALLY DEWPOINT OBSERVATIONS. SCZ027-030-031-034>040-042>050-301900- ...SOUTH CAROLINA... CITY SKY/WX TMP DP RH WIND PRES REMARKS N CHARLESTON PTSUNNY 87 69 54 E13 30.01S HX 91 6HR MIN TEMP: 77; 6HR MAX TEMP: 89; 6HR PCP: TRACE; WATERFRONT PRK N/A 86 N/A N/A E14 N/A FORT JOHNSON NOT AVBL MOUNT PLEASANT FAIR 84 70 61 E6 30.01F JOHNS ISLAND MOCLDY 84 68 58 E12 30.01F PINOPOLIS N/A 90 70 51 E5 29.95S HX 95 MONCKS CORNER N/A 86 72 62 E7 30.01F HX 92 SUMMERVILLE FAIR 86 70 58 E6 30.01F HX 90 BEAUFORT MCAS PTSUNNY 87 70 56 SE9 29.99F HX 92 6HR MIN TEMP: 77; 6HR MAX TEMP: 88; BEAUFORT ARPT CLOUDY 84 72 65 E9 29.99F HILTON HEAD IS MOSUNNY 84 72 65 E8 30.00F GEORGETOWN NOT AVBL WALTERBORO NOT AVBL ORANGEBURG PTSUNNY 85 66 53 E7 30.00F 6HR MIN TEMP: 72; 6HR MAX TEMP: 87; BARNWELL FAIR 79 66 65 E6 30.02R AIKEN FAIR 86 64 48 N3 30.04F MANNING MOCLDY 84 70 61 NE6 30.01F KINGSTREE NOT AVBL COLUMBIA FAIR 89 61 38 VRB7 30.01F 6HR MIN TEMP: 72; 6HR MAX TEMP: 90; SUMTER PTSUNNY 85 66 52 NE8 30.00F 6HR MIN TEMP: 68; 6HR MAX TEMP: 86; FLORENCE PTSUNNY 85 64 49 E7 30.03S 6HR MIN TEMP: 69; 6HR MAX TEMP: 86; MYRTLE BEACH PTSUNNY 84 66 54 E14 30.03F N MYRTLE BEACH FAIR 85 66 53 E12 30.03S 6HR MIN TEMP: 74; 6HR MAX TEMP: 85; $$ GAZ063-065-086>088-099>101-113>116-118-119-134-136>141-150-301900- ...GEORGIA... CITY SKY/WX TMP DP RH WIND PRES REMARKS SAVANNAH ARPT PTSUNNY 86 68 54 E14 29.98F 6HR MIN TEMP: 74; 6HR MAX TEMP: 89; HUNTER AAF PTSUNNY 85 71 61 SE14 29.96F HX 90 6HR MIN TEMP: 75; 6HR MAX TEMP: 90; FORT STEWART CLOUDY 86 70 59 E7 29.98F HX 90 6HR MIN TEMP: 72; 6HR MAX TEMP: 86; STATESBORO NOT AVBL SYLVANIA MOCLDY 84 73 69 CALM 30.01S HX 91 CLAXTON MOCLDY 88 70 55 CALM 29.99F HX 92 THOMSON FAIR 87 69 54 CALM 30.06F HX 91 AUGUSTA-BUSH FAIR 86 63 45 CALM 29.99F 6HR MIN TEMP: 71; 6HR MAX TEMP: 87; AUGUSTA-DANIEL FAIR 87 60 40 VRB3 30.01F SWAINSBORO CLOUDY 88 61 40 CALM 30.01S VIDALIA N/A 90 59 35 SE5 30.00S ALMA PTSUNNY 90 57 32 VRB5 29.98F 6HR MIN TEMP: 70; 6HR MAX TEMP: 91; WAYCROSS PTSUNNY 91 62 37 NW3 29.98S HX 92 JESUP MOCLDY 90 66 45 NE6 29.98F HX 92 BRUNSWICK CLOUDY 81 73 78 CALM 29.98S SAINT SIMONS FAIR 87 71 58 SE8 29.97S HX 93 6HR MIN TEMP: 77; 6HR MAX TEMP: 89; $$ SCZ027-028-034-036>038-045-046-048>050-GAZ119-141-301900- ...LAKE AND SUPPLEMENTAL COASTAL OBSERVATIONS... STATION/POSITION TIME TEMP WIND PRES WAVE SWELL AIR SEA DIR/SP/G HT/PER HT/PER/DIR (UTC) (F) (DEG/KT/KT) (MB) (FT/S) (FT/S/D) UPR LAKE MARION NOT AVBL WINYAH BAY 1700 81 90/ 11 1016.0F LAKE MURRAY 1700 83 110/ 4/ 7 1016.3F ACE BASIN NERRS 1700 85 130/ 4 1016.0S FORT PULASKI 1800 83 80/ 16/ 20 1015.7S SAPELO ISLAND NOT AVBL $$ ANZ835-935-AMZ111-154-330-350-352-354-374-450-454-472-301900- ...C-MAN AND BUOY OBSERVATIONS... STATION/POSITION TIME TEMP WIND PRES WAVE SWELL AIR SEA DIR/SP/G HT/PER HT/PER/DIR (UTC) (F) (DEG/KT/KT) (MB) (FT/S) (FT/S/D) FOLLY BEACH CMAN 1700 82 80/ 11/ 14 1016.8R BUOY 41004 1800 82 84 50/ 14/ 16 1015.5F 3/ 9 2/ 9 BUOY 41008 1800 83 85 80/ 12/ 14 1014.9F 2/10 2/110/10 5E ST. MARYS GA 1800 86 N/A 2/ 9 FRYING PAN BUOY NOT AVBL BUOY 41025 1800 VRB 14/ 17 1017.3R 4/ 7 2/ 80/ 7 CAPE LOOKOUT NC 1700 78 50/ 14/ 17 1017.7S BUOY 41002 1742 79 81 200/ 14/ 17 1015.4F 4/ 7 3/170/ 7 BUOY 41010 1800 84 86 210/ 6/ 6 1015.5S 2/ 4 2/260/ 4 BUOY 41012 NOT AVBL ST AUGUSTINE FL 1800 89 240/ 6/ 8 1015.4S CAPERS NEARSHORE 1700 82 80/ 12/ 14 N/A FRIPP NEARSHORE NOT AVBL $$

USA.gov is the U.S. government's official web portal to all federal, state and local government web resources and services.